IZ2URO-3 Weather Reports


time (UTC)temp
C
wind
direction
speed
KPH
gust
KPH
rain 1hr
cm
rain 24hr
cm
rain mn
cm
humidity
%
barometer
mb
20260507120729 24 45 4.8 4.8 0.00 0.00 0.00 5 1008.0
20260507120134 24 180 3.2 3.2 0.00 0.00 0.00 5 1008.0
20260507115536 23 225 1.6 1.6 0.00 0.00 0.00 6 1008.0
20260507114940 23 180 1.6 1.6 0.00 0.00 0.00 6 1008.0
20260507114345 23 225 1.6 1.6 0.00 0.00 0.00 6 1008.0
20260507113747 23 315 4.8 4.8 0.00 0.00 0.00 5 1008.0
20260507113148 23 0 1.6 3.2 0.00 0.00 0.00 6 1008.0
20260507112553 23 270 3.2 3.2 0.00 0.00 0.00 6 1009.0
20260507111957 22 315 3.2 3.2 0.00 0.00 0.00 6 1009.0
20260507111402 22 225 0.0 3.2 0.00 0.00 0.00 6 1009.0
20260507110807 22 45 1.6 3.2 0.00 0.00 0.00 6 1009.0
20260507110211 22 45 3.2 8.0 0.00 0.00 0.00 6 1009.0
20260507105616 22 45 1.6 3.2 0.00 0.00 0.00 6 1009.0
20260507105021 22 45 8.0 8.0 0.00 0.00 0.00 6 1009.0
20260507104422 22 45 1.6 3.2 0.00 0.00 0.00 6 1009.0
20260507103823 21 315 3.2 4.8 0.00 0.00 0.00 6 1009.0
20260507103228 21 0 6.4 6.4 0.00 0.00 0.00 6 1009.0
20260507102633 21 225 3.2 3.2 0.00 0.00 0.00 6 1009.0
20260507102038 21 225 6.4 6.4 0.00 0.00 0.00 7 1009.0
20260507101440 21 3.2 6.4 0.00 0.00 0.00 7 1009.0
20260507100845 21 23 3.2 3.2 0.00 0.00 0.00 6 1009.0
20260507100246 21 0 4.8 4.8 0.00 0.00 0.00 6 1009.0
20260507095647 20 0.0 4.8 0.00 0.00 0.00 7 1009.0
20260507095049 20 0 4.8 4.8 0.00 0.00 0.00 7 1009.0
20260507094453 20 45 9.7 9.7 0.00 0.00 0.00 7 1009.0
20260507093855 20 45 3.2 3.2 0.00 0.00 0.00 7 1009.0
20260507093300 20 0.0 1.6 0.00 0.00 0.00 7 1009.0
20260507092704 19 0.0 3.2 0.00 0.00 0.00 7 1009.0
20260507092107 19 45 1.6 1.6 0.00 0.00 0.00 7 1009.0
20260507091513 19 0 1.6 1.6 0.00 0.00 0.00 7 1009.0
20260507090917 18 0 1.6 4.8 0.00 0.00 0.00 7 1009.0
20260507090322 18 45 1.6 3.2 0.00 0.00 0.00 7 1009.0
20260507085726 18 45 4.8 4.8 0.00 0.00 0.00 7 1009.0
20260507085131 18 45 4.8 8.0 0.00 0.00 0.00 7 1009.0
20260507084536 18 45 6.4 6.4 0.00 0.00 0.00 7 1009.0
20260507083941 18 45 6.4 6.4 0.00 0.00 0.00 7 1009.0
20260507083346 18 45 6.4 6.4 0.00 0.00 0.00 8 1009.0
20260507082751 17 45 3.2 3.2 0.00 0.00 0.00 8 1009.0
20260507082152 17 45 1.6 3.2 0.00 0.00 0.00 8 1009.0
20260507081556 17 180 0.0 1.6 0.00 0.00 0.00 8 1009.0
20260507081001 16 45 1.6 3.2 0.00 0.00 0.00 8 1009.0
20260507080402 16 0 4.8 4.8 0.00 0.00 0.00 9 1009.0
20260507075807 16 0 4.8 4.8 0.00 0.00 0.00 9 1009.0
20260507075212 16 0 3.2 4.8 0.00 0.00 0.00 8 1009.0
20260507074617 16 315 3.2 4.8 0.00 0.00 0.00 9 1009.0
20260507074021 16 0 4.8 6.4 0.00 0.00 0.00 9 1009.0
20260507073426 16 0 4.8 6.4 0.00 0.00 0.00 8 1009.0
20260507072830 16 0 6.4 6.4 0.00 0.00 0.00 8 1009.0
20260507072235 16 23 0.0 1.6 0.00 0.00 0.00 8 1009.0
20260507071640 16 315 0.0 4.8 0.00 0.00 0.00 8 1009.0
20260507071044 16 0 4.8 6.4 0.00 0.00 0.00 8 1008.0
20260507070450 16 0 4.8 6.4 0.00 0.00 0.00 8 1008.0
20260507065854 16 0 3.2 3.2 0.00 0.00 0.00 9 1008.0
20260507065259 16 180 0.0 0.0 0.00 0.00 0.00 8 1008.0
20260507064704 16 270 1.6 3.2 0.00 0.00 0.00 8 1008.0
20260507064105 16 0 1.6 6.4 0.00 0.00 0.00 8 1008.0
20260507063510 16 0 6.4 6.4 0.00 0.00 0.00 9 1008.0
20260507062912 16 135 3.2 3.2 0.00 0.00 0.00 9 1008.0
20260507062313 16 180 0.0 0.0 0.00 0.00 0.00 8 1008.0
20260507061714 16 225 0.0 0.0 0.00 0.00 0.00 8 1008.0
20260507061119 16 225 0.0 3.2 0.00 0.00 0.00 8 1008.0
20260507060524 16 135 3.2 3.2 0.00 0.00 0.00 8 1008.0
20260507055929 16 135 3.2 3.2 0.00 0.00 0.00 8 1008.0
20260507055334 16 135 3.2 3.2 0.00 0.00 0.00 8 1008.0
20260507054738 16 135 1.6 3.2 0.00 0.00 0.00 8 1008.0
20260507054143 16 45 0.0 4.8 0.00 0.00 0.00 8 1008.0
20260507053548 16 0 3.2 3.2 0.00 0.00 0.00 8 1008.0
20260507052952 16 270 0.0 3.2 0.00 0.00 0.00 8 1008.0
20260507052357 16 338 1.6 1.6 0.00 0.00 0.00 8 1008.0
20260507051802 16 45 0.0 0.0 0.00 0.00 0.00 8 1008.0
20260507051207 16 45 0.0 1.6 0.00 0.00 0.00 8 1008.0
20260507050611 16 0 3.2 4.8 0.00 0.00 0.00 8 1007.0
20260507050016 16 0 3.2 3.2 0.00 0.00 0.00 8 1007.0
20260507045421 16 45 0.0 0.0 0.00 0.00 0.00 8 1007.0
20260507044825 16 45 1.6 3.2 0.00 0.00 0.00 8 1007.0
20260507043717 16 0 3.2 4.8 0.00 0.00 0.00 8 1007.0
20260507043121 16 0 1.6 6.4 0.00 0.00 0.00 8 1007.0
20260507042523 16 45 4.8 4.8 0.00 0.00 0.00 8 1007.0
20260507041928 16 135 0.0 1.6 0.00 0.00 0.00 8 1007.0
20260507041329 16 45 0.0 4.8 0.00 0.00 0.00 8 1007.0
20260507040734 16 45 3.2 4.8 0.00 0.00 0.00 8 1007.0
20260507040135 16 315 1.6 1.6 0.00 0.00 0.00 8 1007.0
20260507035539 16 0 3.2 8.0 0.00 0.00 0.00 8 1007.0
20260507034944 16 45 6.4 6.4 0.00 0.00 0.00 8 1007.0
20260507034349 16 270 0.0 4.8 0.00 0.00 0.00 8 1007.0
20260507033754 16 0 6.4 6.4 0.00 0.00 0.00 8 1007.0
20260507032645 16 293 0.0 3.2 0.00 0.00 0.00 8 1007.0
20260507032050 16 270 0.0 0.0 0.00 0.00 0.00 8 1007.0
20260507031455 16 45 0.0 1.6 0.00 0.00 0.00 8 1007.0
20260507030859 16 315 0.0 0.0 0.00 0.00 0.00 8 1007.0
20260507030303 16 180 0.0 0.0 0.00 0.00 0.00 8 1007.0
20260507025708 16 180 0.0 3.2 0.00 0.00 0.00 8 1007.0
20260507024559 16 180 0.0 0.0 0.00 0.00 0.00 8 1007.0
20260507024001 16 180 0.0 0.0 0.00 0.00 0.00 8 1007.0
20260507023405 16 180 0.0 3.2 0.00 0.00 0.00 8 1007.0
20260507022810 16 180 0.0 0.0 0.00 0.00 0.00 8 1007.0
20260507022215 16 225 0.0 1.6 0.00 0.00 0.00 8 1007.0
20260507021620 16 315 0.0 0.0 0.00 0.00 0.00 7 1006.0
20260507021024 16 180 0.0 0.0 0.00 0.00 0.00 7 1006.0
20260507020429 16 180 0.0 0.0 0.00 0.00 0.00 7 1006.0
20260507015833 16 180 0.0 0.0 0.00 0.00 0.00 7 1006.0
20260507015238 16 180 0.0 0.0 0.00 0.00 0.00 7 1006.0
20260507014643 17 135 0.0 1.6 0.00 0.00 0.00 7 1006.0
20260507014047 17 180 0.0 0.0 0.00 0.00 0.00 7 1006.0
20260507013452 17 180 0.0 0.0 0.00 0.00 0.00 7 1006.0
20260507012344 17 180 0.0 3.2 0.00 0.00 0.00 7 1006.0
20260507011749 17 135 0.0 3.2 0.00 0.00 0.00 7 1006.0
20260507011150 17 135 3.2 3.2 0.00 0.00 0.00 7 1006.0
20260507010555 17 45 1.6 3.2 0.00 0.00 0.00 7 1006.0
20260507010000 17 45 3.2 3.2 0.00 0.00 0.00 7 1006.0
20260507005401 17 0.0 3.2 0.00 0.00 0.00 7 1006.0
20260507004806 17 135 0.0 6.4 0.00 0.00 0.00 7 1006.0
20260507004212 17 45 6.4 6.4 0.00 0.00 0.00 7 1007.0
20260507003616 17 45 0.0 0.0 0.00 0.00 0.00 7 1006.0
20260507003021 17 0.0 0.0 0.00 0.00 0.00 7 1006.0
20260507002426 17 135 1.6 3.2 0.00 0.00 0.00 7 1006.0
20260507001831 17 180 0.0 0.0 0.00 0.00 0.00 7 1006.0
20260507001232 17 225 0.0 3.2 0.00 0.00 0.00 7 1006.0
20260507000637 17 180 0.0 1.6 0.00 0.00 0.00 7 1006.0
20260507000042 17 135 0.0 3.2 0.00 0.00 0.00 7 1006.0
20260506235447 17 135 0.0 3.2 0.00 0.00 0.00 7 1006.0
20260506234338 17 180 0.0 1.6 0.00 0.00 0.00 7 1006.0
20260506233743 17 1.6 4.8 0.00 0.00 0.00 7 1006.0
20260506233147 17 135 0.0 1.6 0.00 0.00 0.00 7 1006.0
20260506232552 17 0 0.0 3.2 0.00 0.00 0.00 7 1006.0
20260506231957 17 45 3.2 3.2 0.00 0.00 0.00 7 1006.0
20260506231402 17 45 0.0 0.0 0.00 0.00 0.00 7 1006.0
20260506230803 17 135 0.0 0.0 0.00 0.00 0.00 7 1006.0
20260506230205 17 135 0.0 1.6 0.00 0.00 0.00 7 1006.0
20260506225610 17 180 0.0 0.0 0.00 0.00 0.00 7 1006.0
20260506225014 17 180 0.0 1.6 0.00 0.00 0.00 7 1006.0
20260506224418 17 180 0.0 1.6 0.00 0.00 0.00 7 1006.0
20260506223823 17 45 3.2 4.8 0.00 0.00 0.00 7 1006.0
20260506223227 17 3.2 3.2 0.00 0.00 0.00 7 1006.0
20260506222632 17 225 0.0 0.0 0.00 0.00 0.00 7 1006.0
20260506222033 18 270 0.0 0.0 0.00 0.00 0.00 7 1006.0
20260506221438 18 0.0 0.0 0.00 0.00 0.00 6 1006.0
20260506220843 18 180 0.0 0.0 0.00 0.00 0.00 7 1006.0
20260506220247 18 0.0 1.6 0.00 0.00 0.00 7 1006.0
20260506215652 18 45 1.6 1.6 0.00 0.00 0.00 7 1006.0
20260506215053 18 45 4.8 4.8 0.00 0.00 0.00 7 1006.0
20260506214458 18 315 0.0 0.0 0.00 0.00 0.00 7 1006.0
20260506213902 18 0 0.0 0.0 0.00 0.00 0.00 6 1006.0
20260506213307 18 180 0.0 0.0 0.00 0.00 0.00 6 1006.0
20260506212712 18 113 0.0 0.0 0.00 0.00 0.00 6 1006.0
20260506212116 18 0.0 0.0 0.00 0.00 0.00 6 1006.0
20260506211521 18 0.0 3.2 0.00 0.00 0.00 6 1006.0
20260506210926 18 135 3.2 6.4 0.00 0.00 0.00 6 1006.0
20260506210330 18 135 6.4 6.4 0.00 0.00 0.00 6 1006.0
20260506205735 19 135 6.4 6.4 0.00 0.00 0.00 6 1006.0
20260506205140 19 135 6.4 6.4 0.00 0.00 0.00 6 1006.0
20260506204544 19 135 4.8 6.4 0.00 0.00 0.00 6 1006.0
20260506203946 19 135 4.8 4.8 0.00 0.00 0.00 6 1005.0
20260506203350 19 135 1.6 3.2 0.00 0.00 0.00 6 1005.0
20260506202755 19 180 1.6 4.8 0.00 0.00 0.00 6 1005.0
20260506202156 19 135 3.2 8.0 0.00 0.00 0.00 6 1005.0
20260506201601 19 6.4 9.7 0.00 0.00 0.00 6 1005.0
20260506201006 20 135 11.3 11.3 0.00 0.00 0.00 6 1005.0
20260506200411 20 135 8.0 9.7 0.00 0.00 0.00 6 1005.0
20260506195816 20 180 11.3 16.1 0.00 0.00 0.00 6 1005.0
20260506195220 20 135 16.1 17.7 0.00 0.00 0.00 6 1005.0
20260506194625 20 158 8.0 8.0 0.00 0.00 0.00 6 1005.0
20260506194026 20 180 4.8 6.4 0.00 0.00 0.00 6 1004.0
20260506193431 20 135 4.8 8.0 0.00 0.00 0.00 6 1004.0
20260506192836 20 180 9.7 9.7 0.00 0.00 0.00 6 1004.0
20260506192241 20 225 0.0 0.0 0.00 0.00 0.00 5 1004.0
20260506191646 20 203 1.6 1.6 0.00 0.00 0.00 5 1004.0
20260506191050 20 225 1.6 3.2 0.00 0.00 0.00 5 1004.0
20260506190455 20 225 1.6 4.8 0.00 0.00 0.00 5 1004.0
20260506185900 20 225 3.2 6.4 0.00 0.00 0.00 6 1004.0
20260506185306 21 225 0.0 4.8 0.00 0.00 0.00 5 1004.0
20260506184709 21 270 0.0 8.0 0.00 0.00 0.00 5 1004.0
20260506184114 21 225 1.6 1.6 0.00 0.00 0.00 5 1004.0
20260506183519 22 135 0.0 3.2 0.00 0.00 0.00 5 1004.0
20260506182924 22 135 1.6 3.2 0.00 0.00 0.00 5 1003.0
20260506182329 22 270 3.2 3.2 0.00 0.00 0.00 5 1003.0
20260506181734 23 270 3.2 3.2 0.00 0.00 0.00 5 1003.0
20260506181139 23 315 3.2 3.2 0.00 0.00 0.00 5 1003.0
20260506180543 23 315 3.2 4.8 0.00 0.00 0.00 5 1003.0
20260506175948 24 0 6.4 6.4 0.00 0.00 0.00 5 1003.0
20260506175352 24 0 3.2 4.8 0.00 0.00 0.00 4 1003.0
20260506174757 25 270 1.6 1.6 0.00 0.00 0.00 4 1003.0
20260506174202 25 225 1.6 1.6 0.00 0.00 0.00 4 1003.0
20260506173606 26 225 1.6 3.2 0.00 0.00 0.00 4 1003.0
20260506173011 26 225 3.2 3.2 0.00 0.00 0.00 4 1003.0
20260506172412 26 225 0.0 1.6 0.00 0.00 0.00 4 1003.0
20260506171813 26 225 0.0 1.6 0.00 0.00 0.00 4 1002.0
20260506171215 26 180 3.2 3.2 0.00 0.00 0.00 4 1002.0
20260506170619 25 225 1.6 3.2 0.00 0.00 0.00 4 1002.0
20260506170024 25 225 3.2 4.8 0.00 0.00 0.00 4 1002.0
20260506165429 24 225 6.4 9.7 0.00 0.00 0.00 4 1002.0
20260506164833 24 225 4.8 8.0 0.00 0.00 0.00 4 1002.0
20260506164238 23 225 8.0 9.7 0.00 0.00 0.00 4 1002.0
20260506163644 23 180 9.7 9.7 0.00 0.00 0.00 4 1001.0
20260506163047 23 225 6.4 8.0 0.00 0.00 0.00 4 1001.0
20260506162452 23 225 6.4 9.7 0.00 0.00 0.00 4 1001.0
20260506161853 23 225 6.4 8.0 0.00 0.00 0.00 4 1001.0
20260506161258 23 225 4.8 8.0 0.00 0.00 0.00 5 1001.0
20260506160703 23 180 6.4 9.7 0.00 0.00 0.00 4 1001.0
20260506160108 23 225 8.0 9.7 0.00 0.00 0.00 4 1001.0
20260506155512 23 180 6.4 12.9 0.00 0.00 0.00 5 1001.0
20260506154917 22 180 6.4 9.7 0.00 0.00 0.00 5 1001.0
20260506154321 22 225 8.0 9.7 0.00 0.00 0.00 5 1001.0
20260506153726 23 180 9.7 9.7 0.00 0.00 0.00 5 1001.0
20260506153131 23 225 9.7 9.7 0.00 0.00 0.00 5 1001.0
20260506152535 23 225 8.0 9.7 0.00 0.00 0.00 5 1001.0
20260506151937 23 225 9.7 12.9 0.00 0.00 0.00 5 1001.0
20260506151341 23 225 3.2 8.0 0.00 0.00 0.00 5 1001.0
20260506150746 23 225 3.2 11.3 0.00 0.00 0.00 5 1001.0
20260506150151 23 225 8.0 8.0 0.00 0.00 0.00 5 1001.0
20260506145555 23 225 8.0 8.0 0.00 0.00 0.00 5 1001.0
20260506145000 23 225 8.0 8.0 0.00 0.00 0.00 4 1001.0
20260506144401 23 135 8.0 11.3 0.00 0.00 0.00 5 1001.0
20260506143806 24 180 6.4 9.7 0.00 0.00 0.00 5 1002.0
20260506143210 24 180 4.8 8.0 0.00 0.00 0.00 5 1002.0
20260506142615 24 225 6.4 8.0 0.00 0.00 0.00 5 1002.0
20260506142019 24 225 6.4 11.3 0.00 0.00 0.00 5 1002.0
20260506141424 24 225 8.0 8.0 0.00 0.00 0.00 5 1002.0
20260506140828 24 225 4.8 8.0 0.00 0.00 0.00 5 1002.0
20260506140230 24 225 4.8 6.4 0.00 0.00 0.00 5 1002.0
20260506135635 24 225 6.4 8.0 0.00 0.00 0.00 5 1002.0
20260506135036 24 225 4.8 9.7 0.00 0.00 0.00 5 1002.0
20260506134437 24 225 8.0 8.0 0.00 0.00 0.00 5 1002.0
20260506133842 24 225 6.4 8.0 0.00 0.00 0.00 5 1002.0
20260506133247 24 180 6.4 8.0 0.00 0.00 0.00 5 1002.0
20260506132651 24 225 8.0 11.3 0.00 0.00 0.00 5 1002.0
20260506132053 24 225 6.4 6.4 0.00 0.00 0.00 5 1002.0
20260506131458 24 225 6.4 8.0 0.00 0.00 0.00 5 1002.0
20260506130902 24 225 8.0 9.7 0.00 0.00 0.00 5 1002.0
20260506130307 24 180 4.8 9.7 0.00 0.00 0.00 5 1002.0
20260506125712 23 180 19.3 19.3 0.00 0.00 0.00 5 1002.0
20260506125113 23 225 3.2 17.7 0.00 0.00 0.00 5 1002.0
20260506124518 23 180 12.9 16.1 0.00 0.00 0.00 5 1002.0
20260506123923 24 180 8.0 9.7 0.00 0.00 0.00 5 1002.0
20260506123328 23 203 8.0 12.9 0.00 0.00 0.00 5 1002.0
20260506122732 23 180 8.0 12.9 0.00 0.00 0.00 5 1002.0
20260506122137 23 180 6.4 14.5 0.00 0.00 0.00 6 1002.0
20260506121542 23 180 12.9 16.1 0.00 0.00 0.00 6 1002.0